Steveston Lifeboat — VOQQ — position and weather

sailwx.info

Track history (hours):
 
Tides and Currents Weather Stations Pressure Air Temp Water Temp Dewpoint Dewpoint Depression Visibility Wind Speed Wind Dir Waves Ship Positions

Steveston Lifeboat

Last reported at 2014-Oct-25 16:33 UTC. Time now 2014-Oct-25 16:53 UTC.
Position N 49°11' W 122°55'.

Length 15 m.

Type: SAR. MMSI: 316012135.

Date/timePositionNaut miles runAvg speedWind from/ knotsBaromVisibWave heightAir tempDewpointWater temp
2014-Oct-25 16:33N 49°11' W 122°55'7 7.5
2014-Oct-25 15:33N 49°07' W 123°05'4 0.1
2014-Oct-24 01:05N 49°07' W 123°11'2 3.1
2014-Oct-24 00:34N 49°07' W 123°09'8 7.6
2014-Oct-23 23:34N 49°09' W 122°58'5 4.9
2014-Oct-23 22:34N 49°07' W 123°05'2 1.6
2014-Oct-23 21:34N 49°08' W 123°03'6 5.9
2014-Oct-23 20:33N 49°07' W 123°12'3 3.5
2014-Oct-23 19:34N 49°07' W 123°07'0 0.1
2014-Oct-23 18:33N 49°07' W 123°07'3 2.7
2014-Oct-23 17:34N 49°07' W 123°11'  
Track history (hours):
 
Tides and Currents Weather Stations Pressure Air Temp Water Temp Dewpoint Dewpoint Depression Visibility Wind Speed Wind Dir Waves Ship Positions

Steveston Lifeboat

Last reported at 2014-Oct-25 16:33 UTC. Time now 2014-Oct-25 16:53 UTC.
Position N 49°11' W 122°55'.

Length 15 m.

Type: SAR. MMSI: 316012135.

Date/timePositionNaut miles runAvg speedWind from/ knotsBaromVisibWave heightAir tempDewpointWater temp
2014-Oct-25 16:33N 49°11' W 122°55'7 7.5
2014-Oct-25 15:33N 49°07' W 123°05'4 0.1
2014-Oct-24 01:05N 49°07' W 123°11'2 3.1
2014-Oct-24 00:34N 49°07' W 123°09'8 7.6
2014-Oct-23 23:34N 49°09' W 122°58'5 4.9
2014-Oct-23 22:34N 49°07' W 123°05'2 1.6
2014-Oct-23 21:34N 49°08' W 123°03'6 5.9
2014-Oct-23 20:33N 49°07' W 123°12'3 3.5
2014-Oct-23 19:34N 49°07' W 123°07'0 0.1
2014-Oct-23 18:33N 49°07' W 123°07'3 2.7
2014-Oct-23 17:34N 49°07' W 123°11'  

Dump ship's entire track history